Location: Unspecified
(0.0000°N, 0.0000°E)
Time: 22:15:00
(UTC+00:00)

Explorer 11/Cluster Stage 4 - Visible Passes

Search period start: 31 October 2014 00:00
Search period end: 10 November 2014 00:00
Orbit: 468 x 1280 km, 28.8° (Epoch: 30 October)

Date Brightness Start Highest point End Pass type
(mag) Time Alt. Az. Time Alt. Az. Time Alt. Az.
31 Oct 8.4 02:47:35 42° SE 02:47:35 42° SE 02:52:48 10° ESE visible
31 Oct 8.6 04:29:58 19° WSW 04:34:25 31° SSW 04:41:33 10° SSE visible
01 Nov 8.7 02:40:52 35° SE 02:40:52 35° SE 02:45:22 10° SE visible
01 Nov 8.8 04:23:15 18° WSW 04:27:12 26° SSW 04:33:50 10° SSE visible
02 Nov 8.9 02:34:05 28° SE 02:34:05 28° SE 02:37:50 10° SE visible
02 Nov 8.9 04:16:27 16° SW 04:20:00 22° SSW 04:26:02 10° SSE visible
03 Nov 9.2 02:27:14 23° SE 02:27:14 23° SE 02:30:13 10° SE visible
03 Nov 9.1 04:09:36 14° SW 04:12:52 18° SSW 04:18:07 10° SSE visible
04 Nov 9.4 02:20:20 19° SSE 02:20:20 19° SSE 02:22:31 10° SE visible
04 Nov 9.2 04:02:42 12° SW 04:05:45 15° SSW 04:10:03 10° SSE visible
05 Nov 9.6 02:13:22 15° SSE 02:13:22 15° SSE 02:14:44 10° SE visible
05 Nov 9.4 03:55:47 10° SW 03:58:41 12° SSW 04:01:41 10° S visible
06 Nov 9.8 02:06:22 12° SSE 02:06:22 12° SSE 02:06:51 10° SSE visible
